Tracking 33197 objects as of 18-Feb-2026
HD Live streaming from Space Station
objects crossing your sky now

LEMUR 1

Track LEMUR 1 now!
10-day predictions
LEMUR 1 is classified as:


NORAD ID: 40044
Int'l Code: 2014-033AL
Perigee: 586.7 km
Apogee: 656.7 km
Inclination: 97.8 °
Period: 97.0 minutes
Semi major axis: 6992 km
RCS: Unknown
Launch date: June 19, 2014
Source: United States (US)
Launch site: Orenburg, Russia (OREN)
Your satellite tracking list
Your tracking list is empty




NASA's NSSDC Master Catalog

Two Line Element Set (TLE):
1 40044U 14033AL  26048.89238374  .00002777  00000-0  32715-3 0  9991
2 40044  97.7676 201.5122 0050042 109.2448 251.4191 14.84678591627762
Source of the keplerian elements: AFSPC